INTELSAT 701 1 22871U 93066A 22145.43528708 -.00000177 00000-0 00000-0 0 9991 2 22871 7.7176 57.7228 0007684 16.9347 139.2884 0.99325482104367 INTELSAT 26 (JCSAT 4) 1 24732U 97007A 22145.43611282 -.00000076 00000-0 00000-0 0 9996 2 24732 10.0329 38.9893 0006405 297.4600 263.3471 0.98907909 92376 GALAXY 25 (TELSTAR 5) 1 24812U 97026A 22146.08313241 -.00000006 00000-0 00000+0 0 9994 2 24812 3.6370 83.8698 0006793 353.2071 262.5935 1.00271767 91492 INTELSAT 5 (PAS 5) 1 24916U 97046A 22145.57713914 -.00000067 00000-0 00000+0 0 9992 2 24916 7.1807 61.2229 0002774 44.7265 151.1274 1.00269163 90735 INTELSAT 805 1 25371U 98037A 22145.58368052 .00000028 00000-0 00000-0 0 9996 2 25371 4.1708 81.6223 0009808 104.3967 106.0265 0.99478431 87603 AFRISTAR 1 25515U 98063A 22145.43705898 .00000005 00000-0 00000-0 0 9997 2 25515 6.9712 61.2097 0008157 22.2412 217.6798 0.99005230 85869 INTELSAT 8 (PAS 8) 1 25522U 98065A 22145.68299286 -.00000203 00000-0 00000-0 0 9994 2 25522 5.3181 77.7521 0278790 265.2089 121.3055 0.95186463 30697 GALAXY 11 1 26038U 99071A 22145.81248267 -.00000165 00000-0 00000-0 0 9990 2 26038 2.9413 88.0763 0000065 73.3888 281.2866 1.00271912 82208 SIRIUS 1 1 26390U 00035A 22145.06326715 .00000065 00000-0 00000-0 0 9993 2 26390 59.3650 189.6177 0003288 277.1644 263.7070 1.57877228 48432 INTELSAT 9 (PAS 9) 1 26451U 00043A 22145.67758535 -.00000292 00000-0 00000-0 0 9999 2 26451 7.1682 61.4028 0002758 3.4739 12.2722 1.00273732 29274 INTELSAT 12 (PAS 12) 1 26590U 00068A 22145.64958830 -.00000223 00000-0 00000-0 0 9991 2 26590 4.6315 79.9322 0005288 225.4574 341.2671 0.99032039 36803 INTELSAT 1R (PAS 1R) 1 26608U 00072A 22145.71881969 -.00000141 00000-0 00000-0 0 9991 2 26608 4.4227 80.4439 0000843 219.8726 358.8554 1.00271795 26447 INTELSAT 10 (PAS 10) 1 26766U 01019A 22145.57949403 .00000030 00000-0 00000-0 0 9996 2 26766 5.5272 73.5688 0004388 346.4356 209.5411 1.00273317 30741 INTELSAT 901 1 26824U 01024A 22145.81577271 -.00000205 00000-0 00000-0 0 9999 2 26824 0.0370 89.0353 0000730 347.6757 72.8577 1.00270204 8102 INTELSAT 902 1 26900U 01039A 22145.82103006 -.00000285 00000-0 00000-0 0 9990 2 26900 2.3498 89.2349 0003290 343.1154 56.5151 1.00273287 75820 DIRECTV 4S 1 26985U 01052A 22145.85766168 -.00000301 00000-0 00000-0 0 9994 2 26985 2.4558 88.7112 0007004 351.5967 245.2557 0.99266007 36345 INTELSAT 904 1 27380U 02007A 22145.82521653 -.00000216 00000-0 00000-0 0 9995 2 27380 3.1840 86.1717 0003077 348.0924 76.6900 1.00272306 36890 INTELSAT 903 1 27403U 02016A 22145.89451968 -.00000269 00000-0 00000-0 0 9997 2 27403 3.9702 82.3858 0007250 332.6115 284.4257 0.99022979 30707 DIRECTV 5 (TEMPO 1) 1 27426U 02023A 22145.59379782 -.00000059 00000-0 00000-0 0 9997 2 27426 1.0729 93.4136 0003200 331.2856 282.1014 1.00272439 73243 INTELSAT 905 1 27438U 02027A 22145.82617594 -.00000187 00000-0 00000-0 0 9998 2 27438 3.0055 86.9177 0002688 330.0569 99.3270 1.00271962 36497 GALAXY 3C 1 27445U 02030A 22145.81213382 -.00000154 00000-0 00000-0 0 9990 2 27445 0.0106 348.8597 0001248 347.4492 104.3655 1.00269481 31620 INTELSAT 906 1 27513U 02041A 22146.08313241 .00000013 00000-0 00000+0 0 9995 2 27513 2.0183 90.7286 0003069 329.7788 277.2318 1.00270465 72091 INTELSAT 907 1 27683U 03007A 22145.88530984 -.00000047 00000-0 00000+0 0 9996 2 27683 1.9235 88.4663 0011882 9.9052 15.8774 0.99157006 70431 GALAXY 12 1 27715U 03013B 22145.66179884 .00000055 00000-0 00000-0 0 9992 2 27715 3.2168 85.7882 0002294 354.5761 272.1007 1.00270932 37216 GALAXY 23 (TELSTAR 13) 1 27854U 03034A 22145.87868126 .00000010 00000-0 00000+0 0 9996 2 27854 0.0054 135.1245 0003151 297.7550 5.8981 1.00272499 73671 HORIZONS 1 (GALAXY 13) 1 27954U 03044A 22145.59048353 .00000046 00000-0 00000-0 0 9999 2 27954 0.0257 90.7930 0001907 104.5595 133.3722 1.00257516 31694 DIRECTV 7S 1 28238U 04016A 22145.85386293 -.00000178 00000-0 00000-0 0 9999 2 28238 1.2825 92.1166 0008728 32.2545 183.8263 0.98917546 66129 INTELSAT 1002 1 28358U 04022A 22145.83088571 -.00000014 00000-0 00000-0 0 9994 2 28358 0.0195 305.0923 0000704 134.0223 102.4097 1.00272541 65670 XM-3 1 28626U 05008A 22145.95758091 -.00000209 00000-0 00000+0 0 9996 2 28626 0.0196 138.2869 0001328 59.3475 305.5098 1.00273680 63192 SPACEWAY 1 1 28644U 05015A 22145.66049059 -.00000006 00000-0 00000-0 0 9995 2 28644 2.8745 87.3430 0005462 28.4617 229.4855 0.98489982 31569 DIRECTV 8 1 28659U 05019A 22145.73547837 -.00000003 00000-0 00000+0 0 9996 2 28659 0.0209 303.8719 0002746 126.6758 318.4749 1.00271997 62312 GALAXY 28 (IA 8) 1 28702U 05022A 22145.95679595 -.00000233 00000-0 00000+0 0 9995 2 28702 0.0143 345.9755 0164146 311.9993 201.6242 1.03538833 61956 GALAXY 14 1 28790U 05030A 22145.83760149 .00000153 00000-0 00000-0 0 9995 2 28790 1.2079 92.4032 0002055 326.3017 159.1074 1.00270589 61434 GALAXY 15 1 28884U 05041A 22145.66101389 .00000075 00000-0 00000-0 0 9990 2 28884 0.0157 344.3234 0001731 78.8766 284.9853 1.00272121 60733 SPACEWAY 2 1 28903U 05046B 22146.20413125 .00000102 00000-0 00000+0 0 9992 2 28903 1.8590 88.1689 0000268 201.4318 248.7325 1.00271758 60628 GALAXY 16 1 29236U 06023A 22145.81126163 -.00000130 00000-0 00000-0 0 9990 2 29236 0.0233 75.3462 0002580 351.8171 9.2527 1.00270405 58096 DIRECTV 9S 1 29494U 06043A 22145.81082553 -.00000116 00000-0 00000-0 0 9996 2 29494 0.0151 286.1528 0003084 146.7487 1.1595 1.00273232 36506 XM-4 1 29520U 06049A 22145.81405260 -.00000208 00000-0 00000-0 0 9998 2 29520 0.0165 304.1263 0001740 61.4669 85.7195 1.00270087 36600 GALAXY 17 1 31307U 07016B 22145.81291877 -.00000178 00000-0 00000-0 0 9992 2 31307 0.0277 357.9986 0002781 71.4652 15.5483 1.00272575 54938 DIRECTV 10 1 31862U 07032A 22145.66703193 -.00000107 00000-0 00000-0 0 9990 2 31862 0.0476 114.9190 0000077 68.8303 196.8063 1.00272388 30711 SPACEWAY 3 1 32018U 07036A 22145.81213382 -.00000155 00000-0 00000-0 0 9994 2 32018 0.1684 85.8297 0000257 233.1557 121.7895 1.00271604 31675 INTELSAT 11 (PAS 11) 1 32253U 07044B 22145.82251277 -.00000272 00000-0 00000-0 0 9990 2 32253 0.0148 310.5767 0001718 121.4763 64.4379 1.00271493 53626 HORIZONS 2 1 32388U 07063B 22145.92321764 -.00000186 00000-0 00000-0 0 9994 2 32388 0.0251 48.8227 0002927 13.8319 238.0307 1.00272116 52943 DIRECTV 11 1 32729U 08013A 22145.95478993 -.00000128 00000-0 00000+0 0 9994 2 32729 0.0446 109.1009 0000168 282.4105 96.5341 1.00270246 52069 GALAXY 18 1 32951U 08024A 22145.73478061 .00000022 00000-0 00000-0 0 9998 2 32951 0.0204 61.7991 0003078 11.2560 311.7423 1.00270511 30971 INTELSAT 25(PROTOSTAR 1) 1 33153U 08034A 22145.82132706 -.00000227 00000-0 00000-0 0 9995 2 33153 0.0120 263.5901 0002945 168.6664 75.2905 1.00271541 50827 GALAXY 19 1 33376U 08045A 22145.81169771 -.00000142 00000-0 00000-0 0 9991 2 33376 0.0477 110.9712 0002974 311.4723 16.1365 1.00272242 50025 SIRIUS FM-5 1 35493U 09034A 22145.81387817 -.00000203 00000-0 00000-0 0 9993 2 35493 0.0093 317.4354 0000419 112.4481 20.3149 1.00270125 31775 INTELSAT 14 1 36097U 09064A 22145.98591078 -.00000276 00000-0 00000+0 0 9990 2 36097 0.0166 301.6073 0002546 127.2884 124.5896 1.00271688 45826 INTELSAT 15 1 36106U 09067A 22145.77624045 -.00000188 00000-0 00000+0 0 9994 2 36106 0.0142 7.8007 0002265 59.6722 180.4447 1.00270996 45723 DIRECTV 12 1 36131U 09075A 22145.66711917 -.00000107 00000-0 00000-0 0 9996 2 36131 0.0294 133.4467 0000248 244.6199 2.6076 1.00272538 31685 INTELSAT 16 1 36397U 10006A 22145.81588420 -.00000248 00000-0 00000-0 0 9990 2 36397 0.0115 9.8591 0002045 77.3880 13.6352 1.00270345 44788 XM-5 1 37185U 10053A 22145.66458983 -.00000027 00000-0 00000-0 0 9996 2 37185 0.0156 346.7661 0000456 214.0527 166.4538 1.00269805 42603 INTELSAT 17 1 37238U 10065B 22145.92185532 -.00000005 00000-0 00000-0 0 9990 2 37238 0.0095 259.5602 0002659 167.1618 214.6290 1.00273443 38368 INTELSAT NEW DAWN 1 37392U 11016A 22145.84843611 .00000152 00000-0 00000-0 0 9990 2 37392 0.0265 262.3093 0000528 162.5626 156.7509 1.00273363 38411 INTELSAT 18 1 37834U 11056A 22145.79521348 .00000049 00000-0 00000-0 0 9994 2 37834 0.0235 357.9482 0001877 66.7343 284.9466 1.00270487 38938 INTELSAT 22 1 38098U 12011A 22145.84545113 -.00000063 00000-0 00000-0 0 9998 2 38098 0.0039 39.0809 0002459 34.2154 186.5756 1.00272318 36944 INTELSAT 19 1 38356U 12030A 22145.79242250 -.00000060 00000-0 00000-0 0 9993 2 38356 0.0162 345.2957 0003049 77.3403 271.9821 1.00271513 35560 INTELSAT 20 1 38740U 12043A 22145.89078611 -.00000027 00000-0 00000-0 0 9996 2 38740 0.0085 279.5468 0001158 283.7294 69.3480 1.00269297 35877 INTELSAT 21 1 38749U 12045A 22145.81946014 -.00000288 00000-0 00000-0 0 9999 2 38749 0.0172 309.7679 0001964 119.5344 51.0699 1.00269478 35668 INTELSAT 23 1 38867U 12057A 22145.82050675 -.00000288 00000-0 00000-0 0 9993 2 38867 0.0532 113.2188 0001021 88.5468 284.0077 1.00270358 35070 SIRIUS FM-6 1 39360U 13058A 22145.95138844 -.00000020 00000-0 00000+0 0 9996 2 39360 0.0281 298.4224 0000381 352.0455 179.3771 1.00273050 31479 INTELSAT 30 1 40271U 14062A 22146.11426303 -.00000153 00000-0 00000+0 0 9991 2 40271 0.0114 303.3853 0001466 146.5755 99.7762 1.00270769 27895 INTELSAT 34 1 40874U 15039A 22145.81998344 -.00000289 00000-0 00000-0 0 9991 2 40874 0.0157 1.0723 0000421 153.1916 328.8172 1.00271409 24757 INTELSAT 29E 1 41308U 16004A 22145.81771576 -.00000285 00000-0 00000-0 0 9999 2 41308 2.7593 87.4855 0014017 346.7928 36.3995 1.00625079 23351 INTELSAT 31 1 41581U 16035A 22145.81213382 -.00000154 00000-0 00000-0 0 9997 2 41581 0.0149 271.1304 0002117 306.4861 223.0632 1.00271707 21817 INTELSAT 36 1 41747U 16053A 22145.99146510 -.00000027 00000-0 00000+0 0 9996 2 41747 0.0112 346.6985 0001747 1.8479 320.4185 1.00271662 21076 INTELSAT 33E 1 41748U 16053B 22145.81855112 .00000045 00000-0 00000-0 0 9993 2 41748 0.0178 12.0218 0001612 59.0807 166.9361 1.00272626 21376 INTELSAT 32E 1 41945U 17007B 22145.82132706 -.00000272 00000-0 00000-0 0 9993 2 41945 0.0145 350.4840 0000200 324.1788 181.1945 1.00269341 19368 INTELSAT 35E 1 42818U 17041A 22145.82132706 -.00000241 00000-0 00000-0 0 9997 2 42818 0.0129 267.0644 0001826 160.5810 76.9195 1.00271508 17946 INTELSAT 37E 1 42950U 17059A 22146.11021509 -.00000144 00000-0 00000+0 0 9995 2 42950 0.0137 329.5670 0002273 111.7264 184.0223 1.00268426 17176